User: anonymous   Login
Location: Lamoine Observatory
(44.4551°N, 68.3470°W)
Time: 03:46:02
(UTC-04:00)
Language:

Cosmos 1674 Rocket - Orbit

View from above orbital plane
View from above orbital plane
View from above satellite
View from above satellite

Ground track
Ground track

The orbit data is extracted from the following two-line orbital elements,

1 15945U 85069B   16179.25941668  .00000110  00000-0  10260-4 0  9992
2 15945  82.5290 105.4011 0020265  17.9343 342.2583 14.83864862668395
Epoch (UTC): 27 June 2016 06:13:33
Eccentricity: 0.0020265
inclination: 82.5290°
perigee height: 603 km
apogee height: 631 km
right ascension of ascending node: 105.4011°
argument of perigee: 17.9343°
revolutions per day: 14.83864862
mean anomaly at epoch: 342.2583°
orbit number at epoch: 66839

The dashed part of the orbit path shows where the satellite is in the earth's shadow,  

DLR